Regional Weather Roundup
Issued by NWS

Home | Current Version | Previous Version | Text Only | Print | Product List | Glossary Off
Versions: 1 2 3 4 5 6 7 8 9 10 11 12 13 14 15 16 17 18 19 20 21 22 23 24 25 26 27 28 29 30 31 32 33 34 35 36 37 38 39 40 41 42 43 44 45 46 47 48 49 50

243
ASUS43 KBIS 181710
RWRND

NORTH DAKOTA REGIONAL WEATHER ROUNDUP
NATIONAL WEATHER SERVICE BISMARCK ND
1100 AM CST THU JAN 18 2018

NOTE: "FAIR" INDICATES FEW OR NO CLOUDS BELOW 12,000 FEET WITH NO
SIGNIFICANT WEATHER AND/OR OBSTRUCTIONS TO VISIBILITY.


NDZ001>003-009>011-017-181800-
NORTHWEST NORTH DAKOTA

CITY           SKY/WX    TMP DP  RH WIND       PRES   REMARKS
WILLISTON      CLOUDY    26  19  74 S6        29.73F WCI  19
MINOT          CLOUDY    32  21  64 SW9       29.71F
MINOT AFB      CLOUDY    31  21  68 CALM      29.69F
$$

NDZ018>021-031>035-040>046-181800-
SOUTHWEST NORTH DAKOTA

CITY           SKY/WX    TMP DP  RH WIND       PRES   REMARKS
BISMARCK       CLOUDY    22  18  85 CALM      29.80F
DICKINSON      CLOUDY    38  24  57 W10       29.76F
GARRISON         N/A     20  16  84 SW3       29.75S
HETTINGER ARPT CLOUDY    35  22  58 CALM      29.82F
$$

NDZ004>008-012>016-024-026-027-054-181800-
NORTHEAST NORTH DAKOTA

CITY           SKY/WX    TMP DP  RH WIND       PRES   REMARKS
GRAND FORKS    CLOUDY    25  18  74 W8        29.77F WCI  16
GRND FRKS AFB  FAIR      26  16  66 W6        29.77S WCI  19
DEVILS LAKE    FAIR      22  16  78 SW8       29.76S WCI  12
$$

NDZ022-023-025-028>030-036>039-047>053-181800-
SOUTHEAST NORTH DAKOTA

CITY           SKY/WX    TMP DP  RH WIND       PRES   REMARKS
FARGO            N/A    N/A N/A N/A MISG        N/A
JAMESTOWN      CLOUDY    30  22  72 W7        29.77F
$$





USA.gov is the U.S. government's official web portal to all federal, state and local government web resources and services.